DateTimeUTC,F1_A11,F1_S11,BsB_S11,BsG_S11,BsR_S11,BbsB_S11,BbsG_S11,BbsR_S11,BaB_A11,BaG_A11,BaR_A11,Tu_S11,T_S11,Uu_S11,U_S11,P_S11,T1_A11
2021-05-01T13:00:00Z,00000200,20000000,,,,,,,-000.09,-000.16,0000.14,17.8,24.8,02.3,01.5,0683.0,31.0
2021-05-01T13:01:00Z,00000200,20000000,,,,,,,-000.21,0000.03,-000.17,17.8,24.8,02.3,01.5,0683.0,31.0
2021-05-01T13:02:00Z,00000200,20000000,,,,,,,0000.04,-000.03,-000.19,17.8,24.8,02.1,01.3,0683.0,31.0
2021-05-01T13:03:00Z,00000200,60000000,,,,,,,-000.72,-000.45,-000.30,17.8,24.8,02.0,01.3,0683.0,31.0
2021-05-01T13:04:00Z,00000200,40000000,0000.29,-000.14,0000.07,0000.58,0000.02,-000.00,0000.53,0000.00,0000.08,17.9,24.6,02.0,01.3,0683.9,31.0
2021-05-01T13:05:00Z,00000200,01000000,0000.80,-000.19,-000.07,0000.78,-000.17,-000.02,-000.32,-000.13,-000.24,17.9,24.6,01.9,01.3,0684.0,31.0
2021-05-01T13:06:00Z,00000200,01000000,0000.29,-000.03,-000.03,0000.07,0000.19,-000.08,-000.08,0000.10,-000.11,17.9,24.5,02.0,01.3,0684.0,31.0
2021-05-01T13:07:00Z,00000200,01000000,0000.17,-000.08,0000.02,-000.33,0000.27,-000.09,-000.29,-000.14,0000.24,17.9,24.5,01.9,01.2,0684.0,31.0
2021-05-01T13:08:00Z,00000200,01000000,-000.49,0000.02,0000.09,0000.07,0000.00,0000.13,-000.60,-000.32,-000.69,17.8,24.5,01.8,01.2,0684.0,31.0
2021-05-01T13:09:00Z,00000200,01000000,0000.18,0000.06,0000.11,0000.06,-000.10,0000.13,0000.30,-000.07,0000.43,17.8,24.5,01.8,01.2,0684.0,31.0
2021-05-01T13:10:00Z,00000200,01000000,0000.16,0000.16,0000.08,0000.49,0000.03,0000.09,0000.40,0000.22,-000.01,17.8,24.5,01.8,01.2,0684.0,31.0
2021-05-01T13:11:00Z,00000200,00000000,0000.80,-000.01,-000.28,0000.20,0000.02,-000.28,0000.22,0000.15,0000.44,17.8,24.5,02.0,01.3,0684.0,31.0
2021-05-01T13:12:00Z,00000200,01000000,0000.33,0000.15,0000.22,-000.13,0000.06,-000.01,-000.17,-000.20,-000.17,17.8,24.5,01.9,01.3,0684.0,31.0
2021-05-01T13:13:00Z,00000200,01000000,-000.08,0000.15,-000.11,0000.36,-000.08,0000.09,-000.27,-000.02,-000.20,17.8,24.4,01.8,01.2,0684.0,31.0
2021-05-01T13:14:00Z,00000200,01000000,0000.12,0000.17,-000.26,0000.15,-000.07,-000.09,0000.08,0000.15,0000.11,17.8,24.4,01.7,01.1,0684.0,31.0
2021-05-01T13:15:00Z,00000200,01000000,-000.12,-000.01,-000.11,0000.86,0000.21,-000.12,-000.24,-000.34,-000.22,17.8,24.4,01.6,01.1,0684.0,31.0
2021-05-01T13:16:00Z,00000200,01000000,-000.20,0000.10,-000.04,-000.25,-000.12,0000.38,0000.07,0000.14,0000.33,17.8,24.4,01.6,01.0,0684.1,31.0
2021-05-01T13:17:00Z,00000200,01000000,-000.06,-000.03,-000.14,-000.19,-000.01,0000.19,-000.30,-000.14,-000.30,17.8,24.4,01.5,01.0,0684.1,31.0
2021-05-01T13:18:00Z,00000200,01000000,-000.05,0000.12,-000.24,0000.11,-000.22,0000.14,-000.06,-000.38,0000.13,17.9,24.4,01.5,01.0,0684.1,31.0
2021-05-01T13:19:00Z,00000200,01000000,0000.32,0000.12,-000.23,0000.09,-000.12,-000.05,-000.38,0000.01,-000.17,17.9,24.4,01.5,01.0,0684.0,31.0
2021-05-01T13:20:00Z,00000200,01000000,0000.16,0000.04,-000.22,0000.07,0000.12,-000.04,0000.04,-000.00,0000.00,17.9,24.4,01.4,01.0,0684.0,31.0
2021-05-01T13:21:00Z,00000200,01000000,0000.14,-000.07,-000.22,0000.24,0000.13,0000.12,0000.03,-000.42,-000.50,17.9,24.4,01.3,00.9,0684.1,31.1
2021-05-01T13:22:00Z,00000200,01000000,0000.48,0000.37,-000.03,0000.11,0000.14,-000.12,-000.50,-000.29,0000.34,17.9,24.4,01.3,00.9,0684.1,31.0
2021-05-01T13:23:00Z,00000200,01000000,0000.06,0000.03,-000.25,0000.27,-000.06,-000.06,0000.05,0000.16,-000.34,17.9,24.4,01.2,00.8,0684.1,31.0
2021-05-01T13:24:00Z,00000200,01000000,0000.49,0000.13,-000.29,0000.28,-000.08,-000.15,-000.13,-000.33,0000.05,17.9,24.4,01.2,00.8,0684.1,31.0
2021-05-01T13:25:00Z,00000200,01000000,0000.05,0000.04,-000.11,0000.07,-000.03,-000.05,-000.49,0000.05,-000.27,18.0,24.5,01.0,00.7,0684.1,31.0
2021-05-01T13:26:00Z,00000200,01000000,0000.10,0000.15,0000.04,0000.80,-000.03,0000.11,-000.33,-000.34,-000.01,18.0,24.5,00.9,00.6,0684.1,31.0
2021-05-01T13:27:00Z,00000200,01000000,-000.28,-000.30,-000.15,0000.18,-000.33,0000.11,0000.20,-000.33,0000.14,18.0,24.5,00.8,00.5,0684.1,31.0
2021-05-01T13:28:00Z,00000200,01000000,0000.30,0000.28,-000.22,0000.51,0000.10,0000.12,-000.31,-000.28,-000.41,18.0,24.5,00.6,00.4,0684.1,31.0
2021-05-01T13:29:00Z,00000200,01000000,0000.03,-000.02,0000.02,0000.26,0000.19,0000.00,-000.60,-000.21,-000.34,18.0,24.5,00.6,00.4,0684.1,31.0
2021-05-01T13:30:00Z,00000200,01000000,-000.16,0000.06,-000.20,0000.33,0000.12,0000.23,-000.05,0000.10,0000.49,18.0,24.5,00.5,00.3,0684.1,31.0
2021-05-01T13:31:00Z,00000200,01000000,0000.64,0000.12,-000.02,0000.21,0000.24,0000.15,-000.58,-000.38,-000.52,18.0,24.5,00.4,00.3,0684.1,31.1
2021-05-01T13:32:00Z,00000200,01000000,0000.08,-000.00,-000.05,0000.25,0000.23,-000.25,-000.19,-000.08,0000.04,18.0,24.5,00.3,00.2,0684.1,31.1
2021-05-01T13:33:00Z,00000200,01000000,0000.04,-000.05,0000.30,0000.36,0000.14,-000.04,0000.45,0000.10,0000.21,18.1,24.5,00.2,00.2,0684.1,31.1
2021-05-01T13:34:00Z,00000200,01000000,0000.11,0000.04,0000.16,0000.18,-000.22,0000.02,-000.36,-000.30,-000.35,18.1,24.5,00.2,00.1,0684.1,31.1
2021-05-01T13:35:00Z,00000200,01000000,0000.02,0000.02,-000.09,-000.07,0000.12,-000.04,0000.24,0000.08,0000.05,18.1,24.5,00.2,00.1,0684.1,31.1
2021-05-01T13:36:00Z,00000200,01000000,0000.82,0000.21,-000.08,-000.06,0000.24,0000.14,-000.14,-000.02,0000.06,18.1,24.5,00.2,00.1,0684.1,31.1
2021-05-01T13:37:00Z,00000200,01000000,0000.97,0000.12,0000.12,0000.70,0000.12,0000.09,0000.02,-000.16,-000.10,18.1,24.5,00.2,00.1,0684.1,31.1
2021-05-01T13:38:00Z,00000200,01000000,0000.07,0000.14,-000.04,0000.43,0000.07,-000.01,0000.14,0000.16,0000.06,18.1,24.5,00.2,00.1,0684.1,31.1
2021-05-01T13:39:00Z,00000200,01000000,-000.09,0000.28,0000.03,0000.21,0000.01,-000.04,-000.58,-000.19,-000.12,18.1,24.5,00.2,00.1,0684.1,31.1
2021-05-01T13:40:00Z,00000200,01000000,0000.47,0000.17,0000.08,0000.35,0000.26,0000.21,0000.12,-000.06,0000.17,18.1,24.5,00.1,00.1,0684.1,31.1
2021-05-01T13:41:00Z,00000200,01000000,-000.22,-000.08,-000.23,0000.21,-000.24,0000.18,-000.38,-000.27,-000.36,18.1,24.6,00.1,00.1,0684.1,31.1
2021-05-01T13:42:00Z,00000200,01000000,0000.31,-000.12,0000.02,-000.24,-000.01,0000.18,0000.01,-000.05,0000.06,18.1,24.6,00.1,00.1,0684.1,31.1
2021-05-01T13:43:00Z,00000200,01000000,0000.36,0000.04,-000.30,0000.17,0000.23,0000.11,0000.23,0000.32,-000.27,18.2,24.5,00.0,00.0,0684.1,31.0
2021-05-01T13:44:00Z,00000200,01000000,0000.23,-000.04,-000.01,0000.21,0000.27,-000.11,0000.18,0000.53,0000.76,18.2,24.6,00.1,00.1,0684.0,31.1
2021-05-01T13:45:00Z,00000200,01000000,0000.34,0000.01,0000.32,0000.28,0000.10,0000.08,0000.48,-000.36,-000.22,18.2,24.6,00.2,00.2,0684.0,31.1
2021-05-01T13:46:00Z,00000200,01000000,-000.04,0000.03,0000.04,-000.10,-000.00,0000.14,0000.20,0000.45,0000.36,18.2,24.6,00.2,00.1,0684.0,31.1
2021-05-01T13:47:00Z,00000200,01000000,0000.59,-000.06,-000.43,0000.57,-000.10,0000.08,-000.31,-000.16,0000.01,18.2,24.6,00.2,00.2,0684.0,31.1
2021-05-01T13:48:00Z,00000200,01000000,0000.65,0000.38,-000.21,0000.25,-000.01,0000.09,-000.36,-000.15,-000.48,18.2,24.6,00.1,00.1,0684.1,31.1
2021-05-01T13:49:00Z,00000200,01000000,0000.78,-000.05,0000.03,0000.64,0000.07,0000.27,0000.18,0000.09,0000.25,18.2,24.6,00.2,00.1,0684.1,31.1
2021-05-01T13:50:00Z,00000200,01000000,-000.33,-000.05,-000.11,-000.67,-000.17,0000.03,-000.17,-000.16,0000.04,18.2,24.6,00.1,00.1,0684.1,31.1
2021-05-01T13:51:00Z,00000200,01000000,0000.26,0000.09,0000.16,0000.29,0000.06,-000.01,-000.26,-000.49,-000.25,18.2,24.6,00.1,00.1,0684.1,31.1
2021-05-01T13:52:00Z,00000200,01000000,0000.16,0000.01,0000.07,0000.37,0000.12,0000.17,0000.02,0000.04,-000.07,18.2,24.6,00.1,00.1,0684.1,31.1
2021-05-01T13:53:00Z,00000200,01000000,0000.25,0000.41,0000.01,0000.39,-000.06,0000.32,-000.39,-000.22,-000.42,18.2,24.7,00.0,00.0,0684.1,31.1
2021-05-01T13:54:00Z,00000200,01000000,0000.48,0000.03,-000.15,0000.14,0000.20,0000.18,-000.19,-000.30,0000.05,18.2,24.6,00.0,00.0,0684.1,31.1
2021-05-01T13:55:00Z,00000200,01000000,-000.31,0000.19,-000.14,0000.38,0000.05,-000.15,-000.02,0000.12,0000.22,18.3,24.6,00.0,00.0,0684.1,31.1
2021-05-01T13:56:00Z,00000200,01000000,0000.44,0000.24,-000.32,0000.24,0000.13,-000.00,0000.23,0000.29,0000.19,18.3,24.6,00.0,00.0,0684.1,31.1
2021-05-01T13:57:00Z,00000200,41000000,,,,,,,0001.60,0001.14,0000.74,18.3,24.7,,00.0,0684.0,31.1
2021-05-01T13:58:00Z,00000200,61000000,,,,,,,-000.85,-000.71,-000.61,18.1,24.8,00.0,00.0,0683.1,31.1
2021-05-01T13:59:00Z,00000200,21000000,,,,,,,-000.47,-000.34,-000.34,18.1,24.9,,00.0,0683.1,31.1
